Weather Roundup
Issued by NWS

Home | Current Version | Previous Version | Text Only | Print | Product List | Glossary On
Versions: 1 2 3 4 5 6 7 8 9 10 11 12 13 14 15 16 17 18 19 20 21 22 23 24 25 26 27 28 29 30 31 32 33 34 35 36 37 38 39 40 41 42 43 44 45 46 47 48 49 50
000
NZUS93 KARX 291259
HRRWXR

CURRENT HOURLY OBSERVATIONS ACROSS
MUCH OF THE UPPER MISSISSIPPI VALLEY
NATIONAL WEATHER SERVICE LA CROSSE WI
800 AM CDT FRI MAY 29 2015


...SOUTHEAST MINNESOTA...


CITY           SKY/WX    TMP DP  RH WIND       PRES   REMARKS
ROCHESTER      CLOUDY    66  62  87 SW16      29.93R
ROCHESTER/MAYO CLOUDY    66  64  94 S8        29.93R
WINONA         PTSUNNY   70  63  78 SW3       29.93R
AUSTIN         LGT RAIN  64  63  94 SW7       29.93R
ALBERT LEA     CLOUDY    64  63  94 SW5       29.91F
DODGE CENTER   RAIN      66  64  94 SW12G18   29.93R
PRESTON        CLOUDY    64  61  88 S10       29.94S
OWATONNA       LGT RAIN  66  63  88 SW14      29.92R
FARIBAULT      CLOUDY    66  63  88 S6        29.90S
$$

...ELSEWHERE IN MINNESOTA...


CITY           SKY/WX    TMP DP  RH WIND       PRES   REMARKS
MINNEAPOLIS    CLOUDY    66  63  90 S10       29.87S
INTNL FALLS    CLOUDY    57  54  88 N13       29.89R
DULUTH         NOT AVBL
RED WING       NOT AVBL
REDWOOD FALLS  CLOUDY    66  63  90 SW5       29.86R
MANKATO        CLOUDY    66  63  88 S7        29.89S
WORTHINGTON    CLOUDY    63  61  94 CALM      29.87R
FAIRMONT       CLOUDY    63  57  82 SE7       29.89F
$$

...SOUTHWEST WISCONSIN...


CITY           SKY/WX    TMP DP  RH WIND       PRES   REMARKS
LA CROSSE      PTSUNNY   69  62  78 S13       29.93R
PRAIRIE DU CHI CLOUDY    66  62  87 CALM      29.96R
BOSCOBEL       CLOUDY    67  63  87 SW5       29.97R
LONE ROCK      NOT AVBL
PLATTEVILLE    CLOUDY    66  64  94 SE7       29.98S
FORT MC COY    MOSUNNY   66  62  87 S3        29.95S
VIROQUA        FAIR      63  63 100 S7        29.96S
WIS DELLS      CLOUDY    64  62  92 S12G17    29.98R
$$

...ELSEWHERE IN WISCONSIN...


CITY           SKY/WX    TMP DP  RH WIND       PRES   REMARKS
MILWAUKEE      CLOUDY    68  58  70 S9        30.02R
MADISON        CLOUDY    66  62  87 SE5       30.00F
GREEN BAY      LGT RAIN  66  59  78 S5        29.98F
EAU CLAIRE     CLOUDY    66  60  81 S10       29.90S
BLACK RVR FLS  CLOUDY    64  64  97 CALM      29.93S
MEDFORD        PTSUNNY   62  59  91 S7        29.94F
WAUSAU         CLOUDY    64  59  83 S5        29.95S
WIS RAPIDS     CLOUDY    64  60  87 S7        29.96F
MARSHFIELD     MOSUNNY   65  60  84 S12       29.94F
RICE LAKE      RAIN      61  59  91 S5        29.91R
$$

...NORTHEAST IOWA...


CITY           SKY/WX    TMP DP  RH WIND       PRES   REMARKS
DECORAH        PTSUNNY   66  63  88 S8        29.95R
MASON CITY     CLOUDY    67  63  87 S9        29.93F
CHARLES CITY   CLOUDY    64  64 100 S8        29.95R
OELWEIN        PTSUNNY   66  64  94 S10       29.97R
$$

...ELSEWHERE IN IOWA...


CITY           SKY/WX    TMP DP  RH WIND       PRES   REMARKS
DES MOINES     PTSUNNY   66  62  87 S8        29.94R
IOWA CITY      CLOUDY    68  64  87 SE8       29.98R
FORT DODGE     PTSUNNY   64  61  88 S7        29.93R
$$

...NORTHERN ILLINOIS...


CITY           SKY/WX    TMP DP  RH WIND       PRES   REMARKS
CHICAGO-OHARE  PTSUNNY   72  64  76 S8        30.03R
CHICAGO-MIDWAY MOSUNNY   75  66  73 S7        30.04R
MOLINE         PTSUNNY   72  65  78 S7        29.97S
ROCKFORD       NOT AVBL
PEORIA         NOT AVBL
$$

NOTE: "FAIR" INDICATES FEW OR NO CLOUDS BELOW 12,000 FEET WITH NO
SIGNIFICANT WEATHER AND/OR OBSTRUCTIONS TO VISIBILITY. WIND
SPEEDS ARE IN MILES-PER-HOUR.



USA.gov is the U.S. government's official web portal to all federal, state and local government web resources and services.